Weather History for KGWO - December, 2012

Change the Weather History Date:

Sunday, December 9, 2012

  Actual Average Record
Temperature  
Mean Temperature 68 °F 47 °F  
Max Temperature 76 °F 58 °F 82 °F (2007)
Min Temperature 60 °F 36 °F 16 °F (2006)
Degree Days  
Heating Degree Days 0 18  
Month to date heating degree days 17 154  
Since 1 July heating degree days 614 622  
Cooling Degree Days 3 0  
Month to date cooling degree days 11 0  
Year to date cooling degree days 2252 2159  
Growing Degree Days 16 (Base 50)    
Moisture  
Dew Point 62 °F    
Average Humidity 79    
Maximum Humidity 93    
Minimum Humidity 64    
Precipitation  
Precipitation 0.30 in 0.20 in 2.76 in (2008)
Month to date precipitation 1.73 1.80  
Year to date precipitation 38.92 47.92  
Sea Level Pressure  
Sea Level Pressure 29.87 in    
Wind  
Wind Speed 12 mph (SSW)    
Max Wind Speed 22 mph    
Max Gust Speed 36 mph    
Visibility 9 miles    
Events Rain    
T = Trace of Precipitation, MM = Missing Value Source: NWS Daily Summary

Daily Weather History Graph

Daily Weather History Graph

Search for Another Location

Airport or City:

Trip Planner

Search our weather history database for the weather conditions in past years. The results will help you decide how hot, cold, wet, or windy it might be!

Date:

Astronomy

Dec. 09, 2012 Rise Set
Actual Time 6:53 AM CST 4:52 PM CST
Civil Twilight 6:25 AM CST 5:20 PM CST
Nautical Twilight 5:54 AM CST 5:51 PM CST
Astronomical Twilight 5:24 AM CST 6:21 PM CST
Moon 2:35 AM CST (12/9) 1:51 PM CST (12/9)
Length of Visible Light 10h 54m
Length of Day
9h 59m
Waning Crescent, 18% of the Moon is Illuminated
Dec 9
Waning Crescent
Dec 13
New
Dec 19
First Quarter
Dec 28
Full
Jan 4
Last Quarter

Hourly Weather History & Observations

Time (CST) Temp. Dew Point Humidity Pressure Visibility Wind Dir Wind Speed Gust Speed Precip Events Conditions
12:53 AM 63.0 °F 60.1 °F 90% 29.91 in 10.0 mi South 9.2 mph - N/A   Mostly Cloudy
1:53 AM 63.0 °F 60.1 °F 90% 29.91 in 10.0 mi South 10.4 mph - N/A   Scattered Clouds
2:53 AM 62.1 °F 59.0 °F 90% 29.91 in 10.0 mi South 8.1 mph - N/A   Mostly Cloudy
3:53 AM 62.1 °F 59.0 °F 90% 29.92 in 10.0 mi South 6.9 mph - N/A   Mostly Cloudy
4:53 AM 62.1 °F 59.0 °F 90% 29.92 in 10.0 mi South 5.8 mph - N/A   Overcast
5:53 AM 61.0 °F 57.9 °F 90% 29.93 in 10.0 mi SSW 5.8 mph - N/A   Scattered Clouds
6:53 AM 60.1 °F 57.9 °F 93% 29.94 in 10.0 mi South 8.1 mph - N/A   Partly Cloudy
7:53 AM 62.1 °F 57.9 °F 86% 29.95 in 10.0 mi South 12.7 mph - N/A   Mostly Cloudy
8:53 AM 66.9 °F 57.9 °F 73% 29.95 in 10.0 mi South 16.1 mph 21.9 mph N/A   Clear
9:53 AM 71.1 °F 59.0 °F 66% 29.96 in 10.0 mi South 17.3 mph - N/A   Clear
10:53 AM 73.0 °F 60.1 °F 64% 29.94 in 10.0 mi SW 17.3 mph 25.3 mph N/A   Scattered Clouds
11:53 AM 73.0 °F 63.0 °F 71% 29.91 in 10.0 mi South 16.1 mph 24.2 mph N/A   Clear
12:51 PM 73.4 °F 64.4 °F 73% 29.89 in 10.0 mi SW 16.1 mph - N/A   Mostly Cloudy
12:53 PM 73.0 °F 64.0 °F 73% 29.88 in 10.0 mi SW 18.4 mph - N/A   Mostly Cloudy
1:35 PM 73.4 °F 64.4 °F 73% 29.87 in 10.0 mi SSW 11.5 mph 20.7 mph N/A   Mostly Cloudy
1:53 PM 73.9 °F 64.0 °F 71% 29.86 in 10.0 mi SSW 15.0 mph 23.0 mph N/A   Scattered Clouds
2:28 PM 73.4 °F 62.6 °F 69% 29.86 in 10.0 mi South 13.8 mph 25.3 mph N/A   Overcast
2:37 PM 73.4 °F 62.6 °F 69% 29.86 in 10.0 mi South 17.3 mph 24.2 mph N/A   Mostly Cloudy
2:53 PM 73.9 °F 63.0 °F 68% 29.86 in 10.0 mi South 15.0 mph - N/A   Partly Cloudy
3:53 PM 72.0 °F 63.0 °F 73% 29.86 in 10.0 mi South 11.5 mph - N/A   Mostly Cloudy
4:53 PM 70.0 °F 63.0 °F 78% 29.85 in 10.0 mi South 10.4 mph - N/A   Scattered Clouds
5:53 PM 68.0 °F 63.0 °F 84% 29.85 in 10.0 mi South 5.8 mph - N/A   Mostly Cloudy
6:53 PM 69.1 °F 63.0 °F 81% 29.83 in 10.0 mi South 8.1 mph - 0.00 in Rain Light Rain
7:53 PM 68.0 °F 64.0 °F 87% 29.82 in 10.0 mi South 10.4 mph - 0.00 in   Scattered Clouds
8:53 PM 69.1 °F 64.9 °F 87% 29.80 in 10.0 mi South 8.1 mph - N/A   Clear
9:53 PM 69.1 °F 64.9 °F 87% 29.80 in 10.0 mi South 12.7 mph - N/A   Partly Cloudy
10:53 PM 70.0 °F 64.9 °F 84% 29.79 in 9.0 mi South 13.8 mph - N/A   Scattered Clouds
11:48 PM 69.8 °F 66.2 °F 88% 29.79 in 1.8 mi SW 19.6 mph 31.1 mph 0.17 in Rain Heavy Rain
11:53 PM 68.0 °F 64.9 °F 90% 29.78 in 1.0 mi SW 20.7 mph 33.4 mph 0.25 in Rain Heavy Rain
11:58 PM 64.4 °F 62.6 °F 94% 29.80 in 1.2 mi West 20.7 mph 35.7 mph 0.05 in Rain Heavy Rain